Regional Weather Roundup
Issued by NWS

Home | Current Version | Previous Version | Graphics & Text | Print | Product List | Glossary On
Versions: 1 2 3 4 5 6 7 8 9 10 11 12 13 14 15 16 17 18 19 20 21 22 23 24 25 26 27 28 29 30 31 32 33 34 35 36 37 38 39 40 41 42 43 44 45 46 47 48 49 50
000
ASUS43 KLMK 011310
RWRKY
KENTUCKY REGIONAL WEATHER ROUNDUP
NATIONAL WEATHER SERVICE LOUISVILLE KY
800 AM EST SUN MAR 01 2015

NOTE "FAIR" INDICATES FEW OR NO CLOUDS BELOW 12,000 FEET
WITH NO SIGNIFICANT WEATHER AND/OR OBSTRUCTIONS TO VISIBILITY.

KYZ001>023-026-027-061>063-070>075-011400-
WESTERN AND SOUTH CENTRAL KENTUCKY

CITY           SKY/WX    TMP DP  RH WIND       PRES   REMARKS
PADUCAH        FRZ RAIN  33  27  78 SE8       30.36F WCI  26
HENDERSON      CLOUDY    32  25  74 SE5       30.35F WCI  27
OWENSBORO      CLOUDY    32  28  85 SE6       30.36F WCI  26
HOPKINSVILLE   CLOUDY    35  29  79 E6        30.35S WCI  30
BOWLING GREEN  CLOUDY    37  29  72 E3        30.38S
GLASGOW        CLOUDY    37  31  79 CALM      30.38S
$$

KYZ024-025-028>034-038-045-046-053-011400-
NORTH CENTRAL KENTUCKY

CITY           SKY/WX    TMP DP  RH WIND       PRES   REMARKS
LOUISVILLE/SDF FRZ RAIN  32  28  85 S5        30.39R WCI  27
LOUISVILLE/LOU MIX PCPN  32  27  81 SE3       30.39F
FORT KNOX      MIX PCPN  30  28  93 E5        30.36S WCI  25
$$

KYZ035>037-039>044-047>052-055>060-089>105-011400-
NORTHEAST KENTUCKY

CITY           SKY/WX    TMP DP  RH WIND       PRES   REMARKS
LEXINGTON      LGT RAIN  34  28  79 SE9       30.38S WCI  27
COVINGTON      LGT SNOW  30  25  80 S6        30.36S WCI  24
FRANKFORT      FRZ RAIN  31  26  82 SE5       30.37F WCI  26
$$

KYZ054-064>069-076>088-106>120-011400-
SOUTHEAST KENTUCKY

CITY           SKY/WX    TMP DP  RH WIND       PRES   REMARKS
JACKSON        CLOUDY    35  26  69 S3        30.38F
LONDON         CLOUDY    38  26  62 S3        30.40S
SOMERSET       CLOUDY    39  30  70 S5        30.40F
MIDDLESBORO    CLOUDY    39  28  63 S6        30.43S
MONTICELLO     CLOUDY    43  33  67 S8        30.41F
$$



USA.gov is the U.S. government's official web portal to all federal, state and local government web resources and services.